Weather History for Galena, AK

Change the Weather History Date:

Sunday, June 2, 2013

  Actual Average Record
Temperature  
Mean Temperature 60 °F -  
Max Temperature 73 °F 61 °F 80 °F (1993)
Min Temperature 48 °F 45 °F 33 °F (2006)
Degree Days  
Heating Degree Days 4    
Growing Degree Days 10 (Base 50)    
Moisture  
Dew Point 42 °F    
Average Humidity 52    
Maximum Humidity 80    
Minimum Humidity 28    
Precipitation  
Precipitation 0.00 in - - ()
Sea Level Pressure  
Sea Level Pressure 29.98 in    
Wind  
Wind Speed 6 mph (SSW)    
Max Wind Speed 18 mph    
Max Gust Speed -    
Visibility 10 miles    
Events      
Averages and records for this station are not official NWS values.
T = Trace of Precipitation, MM = Missing Value Source: NWS Daily Summary

Daily Weather History Graph

Daily Weather History Graph

Search for Another Location

Airport:

Trip Planner

Search our weather history database for the weather conditions in past years. The results will help you decide how hot, cold, wet, or windy it might be!

Date:

Astronomy

Jun. 02, 2013 Rise Set
Actual Time 4:07 AM AKDT 12:46 AM AKDT
Civil Twilight Sun does not rise Sun does not rise
Nautical Twilight Sun does not rise Sun does not rise
Astronomical Twilight Sun does not rise Sun does not rise
Moon 3:10 AM AKDT (6/2) 5:10 PM AKDT (6/2)
Length of Visible Light 24h 00m
Length of Day
20h 39m
Waning Crescent, 29% of the Moon is Illuminated
Jun 2
Waning Crescent
Jun 8
New
Jun 16
First Quarter
Jun 23
Full
Jun 29
Last Quarter

Hourly Weather History & Observations

Time (AKDT) Temp. Dew Point Humidity Pressure Visibility Wind Dir Wind Speed Gust Speed Precip Events Conditions
12:58 AM 57.9 °F 39.9 °F 51% 30.04 in 8.0 mi Calm Calm - N/A   Clear
1:58 AM 54.0 °F 41.0 °F 62% 30.04 in 10.0 mi Calm Calm - N/A   Clear
2:58 AM 48.9 °F 42.1 °F 77% 30.03 in 10.0 mi East 6.9 mph - N/A   Clear
3:58 AM 48.9 °F 41.0 °F 74% 30.03 in 10.0 mi East 4.6 mph - N/A   Clear
4:58 AM 48.9 °F 39.0 °F 69% 30.02 in 10.0 mi Calm Calm - N/A   Clear
5:58 AM 48.0 °F 39.9 °F 74% 30.02 in 10.0 mi Calm Calm - N/A   Clear
6:58 AM 48.9 °F 43.0 °F 80% 30.01 in 9.0 mi Calm Calm - N/A   Clear
7:58 AM 57.0 °F 39.9 °F 53% 30.01 in 10.0 mi Calm Calm - N/A   Clear
8:43 AM 60.8 °F 35.6 °F 39% 29.99 in 10.0 mi East 4.6 mph - N/A   Partly Cloudy
8:58 AM 62.1 °F 37.0 °F 39% 30.00 in 10.0 mi East 5.8 mph - N/A   Clear
9:58 AM 64.9 °F 36.0 °F 34% 29.99 in 10.0 mi ESE 10.4 mph - N/A   Clear
10:58 AM 68.0 °F 37.0 °F 32% 29.99 in 10.0 mi East 9.2 mph - N/A   Clear
11:58 AM 71.1 °F 37.9 °F 30% 29.98 in 10.0 mi East 9.2 mph - N/A   Clear
12:58 PM 73.0 °F 37.9 °F 28% 29.96 in 10.0 mi East 10.4 mph - N/A   Clear
1:58 PM 73.0 °F 39.9 °F 30% 29.96 in 10.0 mi West 12.7 mph - N/A   Clear
2:58 PM 71.1 °F 44.1 °F 38% 29.97 in 10.0 mi WSW 12.7 mph - N/A   Clear
3:58 PM 69.1 °F 48.0 °F 47% 29.97 in 10.0 mi WSW 15.0 mph - N/A   Clear
4:58 PM 70.0 °F 48.0 °F 46% 29.96 in 10.0 mi WSW 13.8 mph - N/A   Clear
5:58 PM 69.1 °F 46.9 °F 45% 29.95 in 10.0 mi WSW 18.4 mph - N/A   Clear
6:58 PM 66.9 °F 48.9 °F 52% 29.94 in 10.0 mi WSW 15.0 mph - N/A   Clear
7:58 PM 64.9 °F 48.9 °F 56% 29.94 in 10.0 mi West 16.1 mph - N/A   Clear
8:58 PM 62.1 °F 46.9 °F 58% 29.93 in 10.0 mi WSW 17.3 mph - N/A   Clear
9:58 PM 61.0 °F 48.0 °F 62% 29.93 in 10.0 mi WSW 15.0 mph - N/A   Clear
10:58 PM 59.0 °F 46.9 °F 64% 29.93 in 10.0 mi SW 10.4 mph - N/A   Clear
11:58 PM 55.9 °F 46.0 °F 69% 29.92 in 10.0 mi WSW 8.1 mph - N/A   Mostly Cloudy